Time,TemperatureF,DewpointF,PressureIn,WindDirection,WindDirectionDegrees,WindSpeedMPH,WindSpeedGustMPH,Humidity,HourlyPrecipIn,Conditions,Clouds,dailyrainin,SoftwareType,DateUTC
2013-10-14 00:01:00,78.0,67.0,30.00,ENE,69,0.0,4.0,69,0.00,,FEW037,0.00,VWS V13.01,2013-10-14 04:01:00,
2013-10-14 00:02:00,78.0,67.0,30.00,ENE,69,1.0,2.0,69,0.00,,FEW037,0.00,VWS V13.01,2013-10-14 04:02:00,
2013-10-14 00:07:00,77.8,66.8,30.01,ENE,69,1.0,2.0,69,0.00,,FEW037,0.00,VWS V13.01,2013-10-14 04:07:00,
2013-10-14 00:12:00,77.6,66.6,30.00,ENE,69,2.0,2.0,69,0.00,,FEW037,0.00,VWS V13.01,2013-10-14 04:12:00,
2013-10-14 00:17:00,77.5,66.9,30.00,ENE,69,0.0,2.0,70,0.00,,FEW037,0.00,VWS V13.01,2013-10-14 04:17:00,
2013-10-14 00:22:00,77.1,66.6,30.00,ENE,69,0.0,2.0,70,0.00,,FEW037,0.00,VWS V13.01,2013-10-14 04:22:00,
2013-10-14 00:27:00,76.4,66.7,30.00,ENE,69,0.0,2.0,72,0.00,,FEW037,0.00,VWS V13.01,2013-10-14 04:27:00,
2013-10-14 00:32:00,75.6,66.7,30.00,ENE,69,2.0,2.0,74,0.00,,FEW037,0.00,VWS V13.01,2013-10-14 04:32:00,
2013-10-14 00:37:00,75.1,66.6,30.00,ENE,69,1.0,2.0,75,0.00,,FEW037,0.00,VWS V13.01,2013-10-14 04:37:00,
2013-10-14 00:42:00,74.8,66.7,30.00,ENE,69,0.0,2.0,76,0.00,,FEW037,0.00,VWS V13.01,2013-10-14 04:42:00,
2013-10-14 00:47:00,74.5,66.8,29.99,ENE,69,0.0,2.0,77,0.00,,FEW037,0.00,VWS V13.01,2013-10-14 04:47:00,
2013-10-14 00:52:00,74.3,66.6,29.99,ENE,69,0.0,2.0,77,0.00,,FEW037,0.00,VWS V13.01,2013-10-14 04:52:00,
2013-10-14 00:57:00,74.1,66.4,29.99,ENE,69,0.0,2.0,77,0.00,,FEW037,0.00,VWS V13.01,2013-10-14 04:57:00,
2013-10-14 01:02:00,73.9,66.6,29.98,ENE,69,0.0,0.0,78,0.00,,CLR,0.00,VWS V13.01,2013-10-14 05:02:00,
2013-10-14 01:07:00,73.6,66.7,29.98,ENE,69,1.0,1.0,79,0.00,,CLR,0.00,VWS V13.01,2013-10-14 05:07:00,
2013-10-14 01:12:00,73.6,66.7,29.98,ENE,69,0.0,2.0,79,0.00,,CLR,0.00,VWS V13.01,2013-10-14 05:12:00,
2013-10-14 01:17:00,73.4,66.5,29.98,ENE,69,0.0,2.0,79,0.00,,CLR,0.00,VWS V13.01,2013-10-14 05:17:00,
2013-10-14 01:22:00,73.2,66.3,29.98,ENE,69,1.0,2.0,79,0.00,,CLR,0.00,VWS V13.01,2013-10-14 05:22:00,
2013-10-14 01:27:00,73.1,66.6,29.98,ENE,69,0.0,2.0,80,0.00,,CLR,0.00,VWS V13.01,2013-10-14 05:27:00,
2013-10-14 01:32:00,72.8,66.3,29.98,ENE,69,0.0,0.0,80,0.00,,CLR,0.00,VWS V13.01,2013-10-14 05:32:00,
2013-10-14 01:37:00,72.7,66.2,29.98,ENE,69,0.0,1.0,80,0.00,,CLR,0.00,VWS V13.01,2013-10-14 05:37:00,
2013-10-14 01:42:00,72.8,66.3,29.98,ENE,69,1.0,2.0,80,0.00,,CLR,0.00,VWS V13.01,2013-10-14 05:42:00,
2013-10-14 01:47:00,72.9,66.4,29.98,ENE,69,0.0,2.0,80,0.00,,CLR,0.00,VWS V13.01,2013-10-14 05:47:00,
2013-10-14 01:52:00,72.8,66.3,29.98,ENE,67,2.0,2.0,80,0.00,,CLR,0.00,VWS V13.01,2013-10-14 05:52:00,
2013-10-14 01:57:00,72.9,66.4,29.98,NNE,14,1.0,3.0,80,0.00,,CLR,0.00,VWS V13.01,2013-10-14 05:57:00,
2013-10-14 02:02:00,72.8,66.3,29.97,NNE,14,2.0,2.0,80,0.00,,FEW040,0.00,VWS V13.01,2013-10-14 06:02:00,
2013-10-14 02:07:00,72.7,66.2,29.97,NNE,14,0.0,2.0,80,0.00,,FEW040,0.00,VWS V13.01,2013-10-14 06:07:00,
2013-10-14 02:12:00,72.7,66.5,29.97,NNE,14,1.0,2.0,81,0.00,,FEW040,0.00,VWS V13.01,2013-10-14 06:12:00,
2013-10-14 02:17:00,72.6,66.4,29.97,NNE,14,1.0,2.0,81,0.00,,FEW040,0.00,VWS V13.01,2013-10-14 06:17:00,
2013-10-14 02:22:00,72.7,66.5,29.97,NNE,14,1.0,2.0,81,0.00,,FEW040,0.00,VWS V13.01,2013-10-14 06:22:00,
2013-10-14 02:27:00,72.7,66.5,29.97,North,5,1.0,2.0,81,0.00,,FEW040,0.00,VWS V13.01,2013-10-14 06:27:00,
2013-10-14 02:32:00,72.7,66.5,29.96,North,5,1.0,2.0,81,0.00,,FEW040,0.00,VWS V13.01,2013-10-14 06:32:00,
2013-10-14 02:37:00,72.7,66.5,29.96,North,5,0.0,2.0,81,0.00,,FEW040,0.00,VWS V13.01,2013-10-14 06:37:00,
2013-10-14 02:42:00,72.5,66.7,29.96,North,5,1.0,2.0,82,0.00,,FEW040,0.00,VWS V13.01,2013-10-14 06:42:00,
2013-10-14 02:47:00,72.4,66.6,29.96,North,5,0.0,2.0,82,0.00,,FEW040,0.00,VWS V13.01,2013-10-14 06:47:00,
2013-10-14 02:52:00,72.4,66.9,29.96,North,5,1.0,2.0,83,0.00,,FEW040,0.00,VWS V13.01,2013-10-14 06:52:00,
2013-10-14 02:57:00,72.5,67.1,29.96,North,5,1.0,2.0,83,0.00,,FEW040,0.00,VWS V13.01,2013-10-14 06:57:00,
2013-10-14 03:02:00,72.6,67.2,29.96,North,5,1.0,2.0,83,0.00,,CLR,0.00,VWS V13.01,2013-10-14 07:02:00,
2013-10-14 03:07:00,72.8,67.3,29.96,North,5,1.0,3.0,83,0.00,,CLR,0.00,VWS V13.01,2013-10-14 07:07:00,
2013-10-14 03:12:00,73.0,67.5,29.96,North,5,0.0,3.0,83,0.00,,CLR,0.00,VWS V13.01,2013-10-14 07:12:00,
2013-10-14 03:17:00,73.0,67.5,29.96,North,5,1.0,3.0,83,0.00,,CLR,0.00,VWS V13.01,2013-10-14 07:17:00,
2013-10-14 03:22:00,72.9,67.4,29.96,North,5,2.0,3.0,83,0.00,,CLR,0.00,VWS V13.01,2013-10-14 07:22:00,
2013-10-14 03:27:00,72.8,67.3,29.95,North,5,1.0,3.0,83,0.00,,CLR,0.00,VWS V13.01,2013-10-14 07:27:00,
2013-10-14 03:32:00,72.8,67.3,29.95,North,5,0.0,1.0,83,0.00,,CLR,0.00,VWS V13.01,2013-10-14 07:32:00,
2013-10-14 03:37:00,72.8,67.7,29.95,North,5,1.0,2.0,84,0.00,,CLR,0.00,VWS V13.01,2013-10-14 07:37:00,
2013-10-14 03:42:00,73.0,67.9,29.96,North,5,1.0,2.0,84,0.00,,CLR,0.00,VWS V13.01,2013-10-14 07:42:00,
2013-10-14 03:47:00,72.9,67.8,29.96,North,5,0.0,3.0,84,0.00,,CLR,0.00,VWS V13.01,2013-10-14 07:47:00,
2013-10-14 03:52:00,72.9,67.8,29.95,North,5,1.0,3.0,84,0.00,,CLR,0.00,VWS V13.01,2013-10-14 07:52:00,
2013-10-14 03:57:00,73.0,67.9,29.95,North,5,2.0,3.0,84,0.00,,CLR,0.00,VWS V13.01,2013-10-14 07:57:00,
2013-10-14 04:02:00,73.1,68.0,29.95,North,5,0.0,0.0,84,0.00,,BKN060,0.00,VWS V13.01,2013-10-14 08:02:00,
2013-10-14 04:07:00,73.1,68.0,29.95,North,5,1.0,1.0,84,0.00,,BKN060,0.00,VWS V13.01,2013-10-14 08:07:00,
2013-10-14 04:12:00,72.8,68.0,29.95,North,5,0.0,1.0,85,0.00,,BKN060,0.00,VWS V13.01,2013-10-14 08:12:00,
2013-10-14 04:17:00,72.6,67.8,29.95,North,5,1.0,2.0,85,0.00,,BKN060,0.00,VWS V13.01,2013-10-14 08:17:00,
2013-10-14 04:22:00,72.4,68.0,29.95,North,5,1.0,2.0,86,0.00,,BKN060,0.00,VWS V13.01,2013-10-14 08:22:00,
2013-10-14 04:27:00,72.6,68.2,29.95,North,5,0.0,2.0,86,0.00,,BKN060,0.00,VWS V13.01,2013-10-14 08:27:00,
2013-10-14 04:32:00,72.6,68.2,29.95,North,5,0.0,0.0,86,0.00,,BKN060,0.00,VWS V13.01,2013-10-14 08:32:00,
2013-10-14 04:37:00,72.5,68.1,29.95,North,5,0.0,1.0,86,0.00,,BKN060,0.00,VWS V13.01,2013-10-14 08:37:00,
2013-10-14 04:42:00,72.2,67.8,29.94,North,5,0.0,1.0,86,0.00,,BKN060,0.00,VWS V13.01,2013-10-14 08:42:00,
2013-10-14 04:47:00,72.1,67.7,29.95,North,5,0.0,1.0,86,0.00,,BKN060,0.00,VWS V13.01,2013-10-14 08:47:00,
2013-10-14 04:52:00,71.8,67.7,29.95,North,5,1.0,1.0,87,0.00,,BKN060,0.00,VWS V13.01,2013-10-14 08:52:00,
2013-10-14 04:57:00,71.8,68.1,29.94,North,5,0.0,2.0,88,0.00,,BKN060,0.00,VWS V13.01,2013-10-14 08:57:00,
2013-10-14 05:02:00,71.9,67.8,29.94,North,5,1.0,1.0,87,0.00,,CLR,0.00,VWS V13.01,2013-10-14 09:02:00,
2013-10-14 05:07:00,71.9,68.2,29.94,North,5,2.0,2.0,88,0.00,,CLR,0.00,VWS V13.01,2013-10-14 09:07:00,
2013-10-14 05:12:00,72.0,68.3,29.94,North,5,0.0,2.0,88,0.00,,CLR,0.00,VWS V13.01,2013-10-14 09:12:00,
2013-10-14 05:17:00,71.9,68.2,29.95,North,5,0.0,2.0,88,0.00,,CLR,0.00,VWS V13.01,2013-10-14 09:17:00,
2013-10-14 05:22:00,71.9,68.2,29.94,North,5,0.0,2.0,88,0.00,,CLR,0.00,VWS V13.01,2013-10-14 09:22:00,
2013-10-14 05:27:00,71.9,68.2,29.94,North,5,0.0,2.0,88,0.00,,CLR,0.00,VWS V13.01,2013-10-14 09:27:00,
2013-10-14 05:32:00,71.9,68.2,29.94,North,5,0.0,0.0,88,0.00,,CLR,0.00,VWS V13.01,2013-10-14 09:32:00,
2013-10-14 05:37:00,71.5,68.1,29.94,North,5,0.0,1.0,89,0.00,,CLR,0.00,VWS V13.01,2013-10-14 09:37:00,
2013-10-14 05:42:00,71.4,68.0,29.94,North,5,0.0,1.0,89,0.00,,CLR,0.00,VWS V13.01,2013-10-14 09:42:00,
2013-10-14 05:47:00,71.2,67.8,29.94,North,5,0.0,1.0,89,0.00,,CLR,0.00,VWS V13.01,2013-10-14 09:47:00,
2013-10-14 05:52:00,71.1,68.0,29.94,North,5,1.0,2.0,90,0.00,,CLR,0.00,VWS V13.01,2013-10-14 09:52:00,
2013-10-14 05:57:00,71.2,68.1,29.94,North,5,2.0,2.0,90,0.00,,CLR,0.00,VWS V13.01,2013-10-14 09:57:00,
2013-10-14 06:02:00,71.3,67.9,29.94,North,5,1.0,1.0,89,0.00,,CLR,0.00,VWS V13.01,2013-10-14 10:02:00,
2013-10-14 06:07:00,71.2,68.1,29.94,North,5,0.0,1.0,90,0.00,,CLR,0.00,VWS V13.01,2013-10-14 10:07:00,
2013-10-14 06:12:00,71.1,67.7,29.94,North,5,0.0,1.0,89,0.00,,CLR,0.00,VWS V13.01,2013-10-14 10:12:00,
2013-10-14 06:17:00,71.0,67.9,29.94,North,5,0.0,1.0,90,0.00,,CLR,0.00,VWS V13.01,2013-10-14 10:17:00,
2013-10-14 06:22:00,70.8,67.7,29.94,North,5,1.0,2.0,90,0.00,,CLR,0.00,VWS V13.01,2013-10-14 10:22:00,
2013-10-14 06:27:00,71.0,67.9,29.94,North,5,2.0,2.0,90,0.00,,CLR,0.00,VWS V13.01,2013-10-14 10:27:00,
2013-10-14 06:32:00,71.0,67.9,29.94,North,5,1.0,2.0,90,0.00,,CLR,0.00,VWS V13.01,2013-10-14 10:32:00,
2013-10-14 06:37:00,70.9,67.8,29.94,North,5,2.0,2.0,90,0.00,,CLR,0.00,VWS V13.01,2013-10-14 10:37:00,
2013-10-14 06:42:00,71.0,67.9,29.94,North,5,0.0,3.0,90,0.00,,CLR,0.00,VWS V13.01,2013-10-14 10:42:00,
2013-10-14 06:47:00,70.9,67.8,29.94,North,5,1.0,3.0,90,0.00,,CLR,0.00,VWS V13.01,2013-10-14 10:47:00,
2013-10-14 06:52:00,70.9,67.8,29.94,North,5,0.0,3.0,90,0.00,,CLR,0.00,VWS V13.01,2013-10-14 10:52:00,
2013-10-14 06:57:00,70.8,67.7,29.94,North,5,1.0,3.0,90,0.00,,CLR,0.00,VWS V13.01,2013-10-14 10:57:00,
2013-10-14 07:02:00,70.8,68.1,29.94,North,5,0.0,0.0,91,0.00,,FEW060,0.00,VWS V13.01,2013-10-14 11:02:00,
2013-10-14 07:07:00,70.7,67.9,29.95,North,5,1.0,2.0,91,0.00,,FEW060,0.00,VWS V13.01,2013-10-14 11:07:00,
2013-10-14 07:12:00,70.6,67.8,29.95,North,5,0.0,3.0,91,0.00,,FEW060,0.00,VWS V13.01,2013-10-14 11:12:00,
2013-10-14 07:17:00,70.7,67.9,29.95,North,5,1.0,3.0,91,0.00,,FEW060,0.00,VWS V13.01,2013-10-14 11:17:00,
2013-10-14 07:22:00,70.8,67.7,29.95,North,5,0.0,3.0,90,0.00,,FEW060,0.00,VWS V13.01,2013-10-14 11:22:00,
2013-10-14 07:27:00,70.8,67.7,29.95,North,5,1.0,3.0,90,0.00,,FEW060,0.00,VWS V13.01,2013-10-14 11:27:00,
2013-10-14 07:32:00,71.0,67.9,29.95,North,5,0.0,1.0,90,0.00,,FEW060,0.00,VWS V13.01,2013-10-14 11:32:00,
2013-10-14 07:37:00,71.0,67.6,29.95,North,5,1.0,2.0,89,0.00,,FEW060,0.00,VWS V13.01,2013-10-14 11:37:00,
2013-10-14 07:42:00,71.2,68.1,29.95,North,5,0.0,2.0,90,0.00,,FEW060,0.00,VWS V13.01,2013-10-14 11:42:00,
2013-10-14 07:47:00,71.5,68.1,29.95,North,5,1.0,2.0,89,0.00,,FEW060,0.00,VWS V13.01,2013-10-14 11:47:00,
2013-10-14 07:52:00,71.8,68.1,29.95,North,5,0.0,2.0,88,0.00,,FEW060,0.00,VWS V13.01,2013-10-14 11:52:00,
2013-10-14 07:57:00,72.2,68.1,29.95,North,5,2.0,3.0,87,0.00,,FEW060,0.00,VWS V13.01,2013-10-14 11:57:00,
2013-10-14 08:02:00,72.7,68.6,29.95,North,5,1.0,1.0,87,0.00,,SCT050,0.00,VWS V13.01,2013-10-14 12:02:00,
2013-10-14 08:07:00,73.1,68.7,29.95,North,5,1.0,2.0,86,0.00,,SCT050,0.00,VWS V13.01,2013-10-14 12:07:00,
2013-10-14 08:12:00,73.5,68.7,29.96,North,355,1.0,3.0,85,0.00,,SCT050,0.00,VWS V13.01,2013-10-14 12:12:00,
2013-10-14 08:17:00,73.9,69.1,29.96,NNE,15,1.0,3.0,85,0.00,,SCT050,0.00,VWS V13.01,2013-10-14 12:17:00,
2013-10-14 08:22:00,74.4,69.3,29.96,North,5,1.0,3.0,84,0.00,,SCT050,0.00,VWS V13.01,2013-10-14 12:22:00,
2013-10-14 08:27:00,74.8,69.3,29.96,North,5,1.0,3.0,83,0.00,,SCT050,0.00,VWS V13.01,2013-10-14 12:27:00,
2013-10-14 08:32:00,75.3,69.8,29.96,North,9,2.0,2.0,83,0.00,,SCT050,0.00,VWS V13.01,2013-10-14 12:32:00,
2013-10-14 08:37:00,76.1,69.8,29.96,North,9,0.0,2.0,81,0.00,,SCT050,0.00,VWS V13.01,2013-10-14 12:37:00,
2013-10-14 08:42:00,76.3,69.3,29.96,North,355,2.0,4.0,79,0.00,,SCT050,0.00,VWS V13.01,2013-10-14 12:42:00,
2013-10-14 08:46:00,76.8,70.2,29.97,NNE,19,2.0,4.0,80,0.00,,SCT050,0.00,VWS V13.01,2013-10-14 12:46:00,
2013-10-14 08:51:00,77.4,69.6,29.97,NNE,15,2.0,4.0,77,0.00,,SCT050,0.00,VWS V13.01,2013-10-14 12:51:00,
2013-10-14 08:57:00,77.9,69.7,29.97,NNE,26,2.0,4.0,76,0.00,,SCT050,0.00,VWS V13.01,2013-10-14 12:57:00,
2013-10-14 09:02:00,78.3,69.3,29.97,NNE,12,5.0,5.0,74,0.00,,SCT050,0.00,VWS V13.01,2013-10-14 13:02:00,
2013-10-14 09:07:00,78.7,69.7,29.97,NNE,27,2.0,5.0,74,0.00,,SCT050,0.00,VWS V13.01,2013-10-14 13:07:00,
2013-10-14 09:12:00,79.2,69.8,29.98,NNW,333,1.0,5.0,73,0.00,,SCT050,0.00,VWS V13.01,2013-10-14 13:12:00,
2013-10-14 09:17:00,79.8,70.0,29.98,NNE,24,2.0,5.0,72,0.00,,SCT050,0.00,VWS V13.01,2013-10-14 13:17:00,
2013-10-14 09:22:00,80.0,70.2,29.98,North,360,2.0,5.0,72,0.00,,SCT050,0.00,VWS V13.01,2013-10-14 13:22:00,
2013-10-14 09:27:00,80.3,70.1,29.98,NNW,333,2.0,5.0,71,0.00,,SCT050,0.00,VWS V13.01,2013-10-14 13:27:00,
2013-10-14 09:32:00,81.2,70.5,29.98,NE,37,1.0,1.0,70,0.00,,SCT050,0.00,VWS V13.01,2013-10-14 13:32:00,
2013-10-14 09:37:00,80.8,68.8,29.98,NNW,339,1.0,5.0,67,0.00,,SCT050,0.00,VWS V13.01,2013-10-14 13:37:00,
2013-10-14 09:42:00,80.9,69.4,29.98,WNW,296,2.0,5.0,68,0.00,,SCT050,0.00,VWS V13.01,2013-10-14 13:42:00,
2013-10-14 09:47:00,80.7,68.7,29.98,NE,36,1.0,6.0,67,0.00,,SCT050,0.00,VWS V13.01,2013-10-14 13:47:00,
2013-10-14 09:52:00,81.8,68.9,29.99,NE,42,4.0,6.0,65,0.00,,SCT050,0.00,VWS V13.01,2013-10-14 13:52:00,
2013-10-14 09:57:00,81.9,69.0,29.99,NE,54,3.0,6.0,65,0.00,,SCT050,0.00,VWS V13.01,2013-10-14 13:57:00,
2013-10-14 10:02:00,82.1,68.7,29.99,NE,48,5.0,5.0,64,0.00,,FEW041,0.00,VWS V13.01,2013-10-14 14:02:00,
2013-10-14 10:07:00,81.7,69.7,29.99,NNE,29,2.0,5.0,67,0.00,,FEW041,0.00,VWS V13.01,2013-10-14 14:07:00,
2013-10-14 10:12:00,82.6,68.7,29.99,SSE,168,1.0,5.0,63,0.00,,FEW041,0.00,VWS V13.01,2013-10-14 14:12:00,
2013-10-14 10:17:00,82.9,69.0,29.99,East,96,2.0,5.0,63,0.00,,FEW041,0.00,VWS V13.01,2013-10-14 14:17:00,
2013-10-14 10:22:00,82.6,68.7,29.99,East,101,1.0,5.0,63,0.00,,FEW041,0.00,VWS V13.01,2013-10-14 14:22:00,
2013-10-14 10:27:00,82.4,68.6,29.99,East,92,1.0,5.0,63,0.00,,FEW041,0.00,VWS V13.01,2013-10-14 14:27:00,
2013-10-14 10:32:00,81.9,68.5,29.99,ENE,62,4.0,5.0,64,0.00,,FEW041,0.00,VWS V13.01,2013-10-14 14:32:00,
2013-10-14 10:37:00,82.3,68.5,29.99,ENE,61,4.0,5.0,63,0.00,,FEW041,0.00,VWS V13.01,2013-10-14 14:37:00,
2013-10-14 10:42:00,82.1,68.7,29.99,NE,51,3.0,6.0,64,0.00,,FEW041,0.00,VWS V13.01,2013-10-14 14:42:00,
2013-10-14 10:47:00,82.6,67.8,29.99,NE,46,2.0,6.0,61,0.00,,FEW041,0.00,VWS V13.01,2013-10-14 14:47:00,
2013-10-14 10:52:00,83.5,69.6,29.99,North,360,2.0,8.0,63,0.00,,FEW041,0.00,VWS V13.01,2013-10-14 14:52:00,
2013-10-14 10:57:00,83.9,68.5,29.99,NE,44,8.0,8.0,60,0.00,,FEW041,0.00,VWS V13.01,2013-10-14 14:57:00,
2013-10-14 11:02:00,84.0,68.1,29.99,NE,36,6.0,7.0,59,0.00,,BKN055,0.00,VWS V13.01,2013-10-14 15:02:00,
2013-10-14 11:07:00,84.6,68.7,29.99,SE,128,4.0,9.0,59,0.00,,BKN055,0.00,VWS V13.01,2013-10-14 15:07:00,
2013-10-14 11:12:00,84.8,69.4,29.99,ESE,117,5.0,9.0,60,0.00,,BKN055,0.00,VWS V13.01,2013-10-14 15:12:00,
2013-10-14 11:17:00,85.7,69.7,29.99,East,81,5.0,9.0,59,0.00,,BKN055,0.00,VWS V13.01,2013-10-14 15:17:00,
2013-10-14 11:22:00,85.4,69.9,29.99,ESE,103,5.0,9.0,60,0.00,,BKN055,0.00,VWS V13.01,2013-10-14 15:22:00,
2013-10-14 11:27:00,85.6,69.6,29.99,SE,136,1.0,9.0,59,0.00,,BKN055,0.00,VWS V13.01,2013-10-14 15:27:00,
2013-10-14 11:32:00,85.8,69.8,29.99,ESE,113,8.0,8.0,59,0.00,,BKN055,0.00,VWS V13.01,2013-10-14 15:32:00,
2013-10-14 11:37:00,85.0,70.1,29.99,ESE,123,5.0,8.0,61,0.00,,BKN055,0.00,VWS V13.01,2013-10-14 15:37:00,
2013-10-14 11:42:00,85.7,69.2,29.98,East,98,8.0,9.0,58,0.00,,BKN055,0.00,VWS V13.01,2013-10-14 15:42:00,
2013-10-14 11:47:00,85.5,70.0,29.98,East,93,2.0,11.0,60,0.00,,BKN055,0.00,VWS V13.01,2013-10-14 15:47:00,
2013-10-14 11:52:00,85.5,68.5,29.98,East,92,4.0,11.0,57,0.00,,BKN055,0.00,VWS V13.01,2013-10-14 15:52:00,
2013-10-14 11:57:00,86.3,69.3,29.98,East,100,4.0,11.0,57,0.00,,BKN055,0.00,VWS V13.01,2013-10-14 15:57:00,
2013-10-14 12:02:00,84.7,68.8,29.98,ENE,74,2.0,6.0,59,0.00,,SCT037,0.00,VWS V13.01,2013-10-14 16:02:00,
2013-10-14 12:07:00,84.6,69.7,29.98,SE,141,5.0,8.0,61,0.00,,SCT037,0.00,VWS V13.01,2013-10-14 16:07:00,
2013-10-14 12:12:00,85.5,70.5,29.98,East,84,5.0,8.0,61,0.00,,SCT037,0.00,VWS V13.01,2013-10-14 16:12:00,
2013-10-14 12:17:00,85.2,69.3,29.98,SE,126,2.0,11.0,59,0.00,,SCT037,0.00,VWS V13.01,2013-10-14 16:17:00,
2013-10-14 12:22:00,85.1,70.2,29.97,ENE,65,2.0,11.0,61,0.00,,SCT037,0.00,VWS V13.01,2013-10-14 16:22:00,
2013-10-14 12:27:00,84.7,67.8,29.97,NE,56,3.0,11.0,57,0.00,,SCT037,0.00,VWS V13.01,2013-10-14 16:27:00,
2013-10-14 12:32:00,85.2,69.8,29.97,SE,131,5.0,7.0,60,0.00,,SCT037,0.00,VWS V13.01,2013-10-14 16:32:00,
2013-10-14 12:37:00,85.0,69.1,29.97,ESE,105,2.0,7.0,59,0.00,,SCT037,0.00,VWS V13.01,2013-10-14 16:37:00,
2013-10-14 12:46:00,86.2,69.2,29.96,ESE,113,4.0,10.0,57,0.00,,SCT037,0.00,VWS V13.01,2013-10-14 16:46:00,
2013-10-14 12:51:00,86.6,69.6,29.96,ENE,63,5.0,10.0,57,0.00,,SCT037,0.00,VWS V13.01,2013-10-14 16:51:00,
2013-10-14 12:56:00,85.5,69.6,29.96,East,88,6.0,10.0,59,0.00,,SCT037,0.00,VWS V13.01,2013-10-14 16:56:00,
2013-10-14 13:01:00,85.6,69.1,29.96,ESE,104,2.0,3.0,58,0.00,,SCT040,0.00,VWS V13.01,2013-10-14 17:01:00,
2013-10-14 13:06:00,85.9,70.4,29.96,ESE,114,4.0,9.0,60,0.00,,SCT040,0.00,VWS V13.01,2013-10-14 17:06:00,
2013-10-14 13:11:00,86.1,70.1,29.96,East,98,4.0,9.0,59,0.00,,SCT040,0.00,VWS V13.01,2013-10-14 17:11:00,
2013-10-14 13:16:00,85.5,70.0,29.95,East,101,5.0,9.0,60,0.00,,SCT040,0.00,VWS V13.01,2013-10-14 17:16:00,
2013-10-14 13:21:00,85.2,68.8,29.95,East,98,5.0,12.0,58,0.00,,SCT040,0.00,VWS V13.01,2013-10-14 17:21:00,
2013-10-14 13:26:00,85.2,68.8,29.95,ENE,77,4.0,12.0,58,0.00,,SCT040,0.00,VWS V13.01,2013-10-14 17:26:00,
2013-10-14 13:31:00,84.4,68.5,29.94,East,101,1.0,1.0,59,0.00,,SCT040,0.00,VWS V13.01,2013-10-14 17:31:00,
2013-10-14 13:36:00,84.9,68.0,29.94,East,90,5.0,10.0,57,0.00,,SCT040,0.00,VWS V13.01,2013-10-14 17:36:00,
2013-10-14 13:41:00,85.5,69.6,29.94,ENE,71,5.0,10.0,59,0.00,,SCT040,0.00,VWS V13.01,2013-10-14 17:41:00,
2013-10-14 13:46:00,85.2,68.8,29.93,ESE,116,4.0,11.0,58,0.00,,SCT040,0.00,VWS V13.01,2013-10-14 17:46:00,
2013-10-14 13:51:00,85.7,68.7,29.93,East,96,8.0,11.0,57,0.00,,SCT040,0.00,VWS V13.01,2013-10-14 17:51:00,
2013-10-14 13:56:00,85.6,69.1,29.93,ESE,113,5.0,11.0,58,0.00,,SCT040,0.00,VWS V13.01,2013-10-14 17:56:00,
2013-10-14 14:01:00,86.2,68.7,29.93,ENE,60,4.0,11.0,56,0.00,,SCT045,0.00,VWS V13.01,2013-10-14 18:01:00,
2013-10-14 14:06:00,85.4,67.9,29.93,East,92,2.0,9.0,56,0.00,,SCT045,0.00,VWS V13.01,2013-10-14 18:06:00,
2013-10-14 14:11:00,85.9,68.4,29.92,ESE,111,5.0,9.0,56,0.00,,SCT045,0.00,VWS V13.01,2013-10-14 18:11:00,
2013-10-14 14:16:00,85.2,68.3,29.92,ENE,77,7.0,11.0,57,0.00,,SCT045,0.00,VWS V13.01,2013-10-14 18:16:00,
2013-10-14 14:21:00,85.9,68.4,29.92,East,86,5.0,14.0,56,0.00,,SCT045,0.00,VWS V13.01,2013-10-14 18:21:00,
2013-10-14 14:26:00,85.3,67.8,29.92,NE,51,4.0,14.0,56,0.00,,SCT045,0.00,VWS V13.01,2013-10-14 18:26:00,
2013-10-14 14:31:00,85.8,68.8,29.92,ENE,69,3.0,14.0,57,0.00,,SCT045,0.00,VWS V13.01,2013-10-14 18:31:00,
2013-10-14 14:36:00,85.6,68.6,29.92,ENE,77,3.0,11.0,57,0.00,,SCT045,0.00,VWS V13.01,2013-10-14 18:36:00,
2013-10-14 14:41:00,85.9,67.3,29.92,NE,46,3.0,12.0,54,0.00,,SCT045,0.00,VWS V13.01,2013-10-14 18:41:00,
2013-10-14 14:46:00,85.8,68.3,29.92,East,87,4.0,14.0,56,0.00,,SCT045,0.00,VWS V13.01,2013-10-14 18:46:00,
2013-10-14 14:51:00,85.6,68.1,29.91,SE,145,7.0,14.0,56,0.00,,SCT045,0.00,VWS V13.01,2013-10-14 18:51:00,
2013-10-14 14:56:00,85.7,68.2,29.91,ESE,119,4.0,14.0,56,0.00,,SCT045,0.00,VWS V13.01,2013-10-14 18:56:00,
2013-10-14 15:01:00,85.8,67.2,29.91,NE,46,8.0,14.0,54,0.00,,SCT041,0.00,VWS V13.01,2013-10-14 19:01:00,
2013-10-14 15:06:00,84.9,68.0,29.91,ENE,60,3.0,13.0,57,0.00,,SCT041,0.00,VWS V13.01,2013-10-14 19:06:00,
2013-10-14 15:11:00,85.4,67.9,29.90,ESE,115,6.0,13.0,56,0.00,,SCT041,0.00,VWS V13.01,2013-10-14 19:11:00,
2013-10-14 15:16:00,85.0,67.6,29.90,East,98,5.0,13.0,56,0.00,,SCT041,0.00,VWS V13.01,2013-10-14 19:16:00,
2013-10-14 15:21:00,85.6,67.6,29.90,NE,52,4.0,13.0,55,0.00,,SCT041,0.00,VWS V13.01,2013-10-14 19:21:00,
2013-10-14 15:26:00,85.2,67.2,29.90,East,94,4.0,13.0,55,0.00,,SCT041,0.00,VWS V13.01,2013-10-14 19:26:00,
2013-10-14 15:31:00,85.7,68.2,29.90,East,96,5.0,13.0,56,0.00,,SCT041,0.00,VWS V13.01,2013-10-14 19:31:00,
2013-10-14 15:36:00,85.5,68.0,29.90,ENE,76,6.0,10.0,56,0.00,,SCT041,0.00,VWS V13.01,2013-10-14 19:36:00,
2013-10-14 15:41:00,85.8,68.3,29.90,ESE,105,4.0,11.0,56,0.00,,SCT041,0.00,VWS V13.01,2013-10-14 19:41:00,
2013-10-14 15:46:00,85.6,68.1,29.90,East,82,4.0,11.0,56,0.00,,SCT041,0.00,VWS V13.01,2013-10-14 19:46:00,
2013-10-14 15:51:00,85.2,67.8,29.90,East,86,4.0,11.0,56,0.00,,SCT041,0.00,VWS V13.01,2013-10-14 19:51:00,
2013-10-14 15:56:00,85.1,67.7,29.90,East,80,2.0,11.0,56,0.00,,SCT041,0.00,VWS V13.01,2013-10-14 19:56:00,
2013-10-14 16:01:00,85.3,68.3,29.90,SE,129,6.0,11.0,57,0.00,,SCT045,0.00,VWS V13.01,2013-10-14 20:01:00,
2013-10-14 16:06:00,85.1,66.6,29.90,ENE,59,4.0,10.0,54,0.00,,SCT045,0.00,VWS V13.01,2013-10-14 20:06:00,
2013-10-14 16:11:00,85.4,67.4,29.90,ENE,63,4.0,12.0,55,0.00,,SCT045,0.00,VWS V13.01,2013-10-14 20:11:00,
2013-10-14 16:16:00,85.2,67.8,29.90,ESE,102,4.0,12.0,56,0.00,,SCT045,0.00,VWS V13.01,2013-10-14 20:16:00,
2013-10-14 16:21:00,84.9,67.5,29.90,East,92,4.0,12.0,56,0.00,,SCT045,0.00,VWS V13.01,2013-10-14 20:21:00,
2013-10-14 16:26:00,85.2,68.3,29.90,SE,132,2.0,12.0,57,0.00,,SCT045,0.00,VWS V13.01,2013-10-14 20:26:00,
2013-10-14 16:31:00,84.8,67.9,29.90,ENE,74,4.0,12.0,57,0.00,,SCT045,0.00,VWS V13.01,2013-10-14 20:31:00,
2013-10-14 16:36:00,84.8,67.9,29.90,ESE,109,4.0,6.0,57,0.00,,SCT045,0.00,VWS V13.01,2013-10-14 20:36:00,
2013-10-14 16:41:00,84.5,67.6,29.89,East,82,4.0,11.0,57,0.00,,SCT045,0.00,VWS V13.01,2013-10-14 20:41:00,
2013-10-14 16:46:00,84.7,67.8,29.89,East,89,3.0,11.0,57,0.00,,SCT045,0.00,VWS V13.01,2013-10-14 20:46:00,
2013-10-14 16:51:00,84.8,67.4,29.90,East,86,4.0,11.0,56,0.00,,SCT045,0.00,VWS V13.01,2013-10-14 20:51:00,
2013-10-14 16:56:00,84.3,67.9,29.90,East,83,2.0,11.0,58,0.00,,SCT045,0.00,VWS V13.01,2013-10-14 20:56:00,
2013-10-14 17:01:00,83.8,67.5,29.90,ESE,110,6.0,12.0,58,0.00,,SCT045,0.00,VWS V13.01,2013-10-14 21:01:00,
2013-10-14 17:02:00,83.8,68.0,29.90,ESE,123,8.0,8.0,59,0.00,,SCT045,0.00,VWS V13.01,2013-10-14 21:02:00,
2013-10-14 17:07:00,83.6,67.8,29.90,East,84,3.0,12.0,59,0.00,,SCT045,0.00,VWS V13.01,2013-10-14 21:07:00,
2013-10-14 17:12:00,83.8,68.0,29.90,ESE,107,2.0,12.0,59,0.00,,SCT045,0.00,VWS V13.01,2013-10-14 21:12:00,
2013-10-14 17:17:00,83.5,68.2,29.89,East,88,5.0,12.0,60,0.00,,SCT045,0.00,VWS V13.01,2013-10-14 21:17:00,
2013-10-14 17:22:00,83.5,68.2,29.90,East,88,1.0,12.0,60,0.00,,SCT045,0.00,VWS V13.01,2013-10-14 21:22:00,
2013-10-14 17:27:00,83.4,68.6,29.89,ENE,61,4.0,12.0,61,0.00,,SCT045,0.00,VWS V13.01,2013-10-14 21:27:00,
2013-10-14 17:32:00,83.7,68.3,29.90,ENE,68,5.0,11.0,60,0.00,,SCT045,0.00,VWS V13.01,2013-10-14 21:32:00,
2013-10-14 17:37:00,82.7,67.9,29.89,ENE,78,4.0,11.0,61,0.00,,SCT045,0.00,VWS V13.01,2013-10-14 21:37:00,
2013-10-14 17:42:00,82.9,68.6,29.90,East,84,6.0,11.0,62,0.00,,SCT045,0.00,VWS V13.01,2013-10-14 21:42:00,
2013-10-14 17:47:00,82.8,68.0,29.90,SE,126,4.0,11.0,61,0.00,,SCT045,0.00,VWS V13.01,2013-10-14 21:47:00,
2013-10-14 17:52:00,82.6,67.8,29.90,SE,138,7.0,11.0,61,0.00,,SCT045,0.00,VWS V13.01,2013-10-14 21:52:00,
2013-10-14 17:57:00,82.7,68.4,29.90,East,84,3.0,11.0,62,0.00,,SCT045,0.00,VWS V13.01,2013-10-14 21:57:00,
2013-10-14 18:02:00,82.9,68.6,29.90,East,88,2.0,4.0,62,0.00,,CLR,0.00,VWS V13.01,2013-10-14 22:02:00,
2013-10-14 18:07:00,82.3,68.5,29.90,ENE,66,2.0,8.0,63,0.00,,CLR,0.00,VWS V13.01,2013-10-14 22:07:00,
2013-10-14 18:12:00,82.3,68.5,29.90,NE,44,5.0,8.0,63,0.00,,CLR,0.00,VWS V13.01,2013-10-14 22:12:00,
2013-10-14 18:17:00,82.1,68.3,29.90,East,101,2.0,8.0,63,0.00,,CLR,0.00,VWS V13.01,2013-10-14 22:17:00,
2013-10-14 18:22:00,82.0,68.2,29.90,East,83,4.0,8.0,63,0.00,,CLR,0.00,VWS V13.01,2013-10-14 22:22:00,
2013-10-14 18:27:00,81.8,68.4,29.90,ENE,66,4.0,8.0,64,0.00,,CLR,0.00,VWS V13.01,2013-10-14 22:27:00,
2013-10-14 18:32:00,81.5,68.2,29.91,ESE,119,4.0,7.0,64,0.00,,CLR,0.00,VWS V13.01,2013-10-14 22:32:00,
2013-10-14 18:37:00,81.1,68.2,29.91,ENE,74,4.0,7.0,65,0.00,,CLR,0.00,VWS V13.01,2013-10-14 22:37:00,
2013-10-14 18:42:00,81.1,68.2,29.91,ENE,75,3.0,7.0,65,0.00,,CLR,0.00,VWS V13.01,2013-10-14 22:42:00,
2013-10-14 18:47:00,80.9,68.5,29.91,East,86,3.0,7.0,66,0.00,,CLR,0.00,VWS V13.01,2013-10-14 22:47:00,
2013-10-14 18:52:00,80.9,68.5,29.91,ENE,71,3.0,8.0,66,0.00,,CLR,0.00,VWS V13.01,2013-10-14 22:52:00,
2013-10-14 18:57:00,80.7,68.3,29.91,NE,45,2.0,8.0,66,0.00,,CLR,0.00,VWS V13.01,2013-10-14 22:57:00,
2013-10-14 19:02:00,80.4,68.0,29.91,ENE,71,2.0,3.0,66,0.00,,CLR,0.00,VWS V13.01,2013-10-14 23:02:00,
2013-10-14 19:07:00,80.5,68.1,29.91,ENE,61,5.0,9.0,66,0.00,,CLR,0.00,VWS V13.01,2013-10-14 23:07:00,
2013-10-14 19:12:00,80.5,68.1,29.91,ENE,64,2.0,9.0,66,0.00,,CLR,0.00,VWS V13.01,2013-10-14 23:12:00,
2013-10-14 19:17:00,80.3,68.3,29.92,East,99,6.0,9.0,67,0.00,,CLR,0.00,VWS V13.01,2013-10-14 23:17:00,
2013-10-14 19:22:00,80.1,68.2,29.92,NE,46,5.0,9.0,67,0.00,,CLR,0.00,VWS V13.01,2013-10-14 23:22:00,
2013-10-14 19:27:00,80.1,68.6,29.92,ENE,75,2.0,9.0,68,0.00,,CLR,0.00,VWS V13.01,2013-10-14 23:27:00,
2013-10-14 19:32:00,80.1,68.6,29.92,ESE,103,4.0,4.0,68,0.00,,CLR,0.00,VWS V13.01,2013-10-14 23:32:00,
2013-10-14 19:37:00,80.1,68.6,29.91,ESE,113,2.0,6.0,68,0.00,,CLR,0.00,VWS V13.01,2013-10-14 23:37:00,
2013-10-14 19:42:00,79.9,68.8,29.92,East,80,2.0,6.0,69,0.00,,CLR,0.00,VWS V13.01,2013-10-14 23:42:00,
2013-10-14 19:47:00,79.8,68.7,29.92,ESE,104,1.0,6.0,69,0.00,,CLR,0.00,VWS V13.01,2013-10-14 23:47:00,
2013-10-14 19:52:00,79.9,68.8,29.92,NE,53,2.0,6.0,69,0.00,,CLR,0.00,VWS V13.01,2013-10-14 23:52:00,
2013-10-14 19:57:00,79.7,69.1,29.92,ENE,71,2.0,6.0,70,0.00,,CLR,0.00,VWS V13.01,2013-10-14 23:57:00,
2013-10-14 20:02:00,79.8,68.7,29.92,ENE,72,3.0,3.0,69,0.00,,FEW055,0.00,VWS V13.01,2013-10-15 00:02:00,
2013-10-14 20:07:00,79.6,69.0,29.92,ENE,63,1.0,5.0,70,0.00,,FEW055,0.00,VWS V13.01,2013-10-15 00:07:00,
2013-10-14 20:12:00,79.6,69.0,29.93,ENE,68,2.0,6.0,70,0.00,,FEW055,0.00,VWS V13.01,2013-10-15 00:12:00,
2013-10-14 20:17:00,79.7,68.6,29.92,East,84,2.0,7.0,69,0.00,,FEW055,0.00,VWS V13.01,2013-10-15 00:17:00,
2013-10-14 20:22:00,79.5,68.9,29.93,East,83,2.0,7.0,70,0.00,,FEW055,0.00,VWS V13.01,2013-10-15 00:22:00,
2013-10-14 20:27:00,79.3,68.3,29.93,ENE,59,3.0,7.0,69,0.00,,FEW055,0.00,VWS V13.01,2013-10-15 00:27:00,
2013-10-14 20:32:00,79.4,68.3,29.93,East,84,2.0,2.0,69,0.00,,FEW055,0.00,VWS V13.01,2013-10-15 00:32:00,
2013-10-14 20:37:00,79.3,68.7,29.93,NE,53,2.0,6.0,70,0.00,,FEW055,0.00,VWS V13.01,2013-10-15 00:37:00,
2013-10-14 20:42:00,79.3,68.7,29.93,ENE,78,3.0,6.0,70,0.00,,FEW055,0.00,VWS V13.01,2013-10-15 00:42:00,
2013-10-14 20:47:00,79.3,68.7,29.94,ENE,74,2.0,6.0,70,0.00,,FEW055,0.00,VWS V13.01,2013-10-15 00:47:00,
2013-10-14 20:52:00,79.1,68.9,29.94,East,90,4.0,6.0,71,0.00,,FEW055,0.00,VWS V13.01,2013-10-15 00:52:00,
2013-10-14 20:57:00,79.1,68.5,29.94,NE,56,2.0,6.0,70,0.00,,FEW055,0.00,VWS V13.01,2013-10-15 00:57:00,
2013-10-14 21:01:00,79.2,69.0,29.94,ENE,74,3.0,5.0,71,0.00,,FEW050,0.00,VWS V13.01,2013-10-15 01:01:00,
2013-10-14 21:06:00,78.9,68.3,29.94,ENE,74,2.0,5.0,70,0.00,,FEW050,0.00,VWS V13.01,2013-10-15 01:06:00,
2013-10-14 21:11:00,79.1,68.5,29.94,ENE,74,2.0,6.0,70,0.00,,FEW050,0.00,VWS V13.01,2013-10-15 01:11:00,
2013-10-14 21:16:00,79.1,68.5,29.94,ENE,65,1.0,6.0,70,0.00,,FEW050,0.00,VWS V13.01,2013-10-15 01:16:00,
2013-10-14 21:21:00,79.1,68.5,29.94,East,87,1.0,6.0,70,0.00,,FEW050,0.00,VWS V13.01,2013-10-15 01:21:00,
2013-10-14 21:26:00,78.9,68.3,29.94,ENE,69,2.0,6.0,70,0.00,,FEW050,0.00,VWS V13.01,2013-10-15 01:26:00,
2013-10-14 21:31:00,78.9,68.7,29.94,NNE,28,4.0,4.0,71,0.00,,FEW050,0.00,VWS V13.01,2013-10-15 01:31:00,
2013-10-14 21:37:00,79.0,68.4,29.95,ENE,61,1.0,5.0,70,0.00,,FEW050,0.00,VWS V13.01,2013-10-15 01:37:00,
2013-10-14 21:42:00,78.9,68.3,29.95,ENE,61,0.0,5.0,70,0.00,,FEW050,0.00,VWS V13.01,2013-10-15 01:42:00,
2013-10-14 21:47:00,78.5,68.3,29.95,NE,55,1.0,5.0,71,0.00,,FEW050,0.00,VWS V13.01,2013-10-15 01:47:00,
2013-10-14 21:52:00,78.7,68.5,29.95,ENE,61,2.0,5.0,71,0.00,,FEW050,0.00,VWS V13.01,2013-10-15 01:52:00,
2013-10-14 21:57:00,78.6,68.4,29.95,ENE,65,1.0,5.0,71,0.00,,FEW050,0.00,VWS V13.01,2013-10-15 01:57:00,
2013-10-14 22:02:00,78.5,68.3,29.95,East,80,1.0,2.0,71,0.00,,FEW050,0.00,VWS V13.01,2013-10-15 02:02:00,
2013-10-14 22:07:00,78.5,68.3,29.95,ENE,57,3.0,3.0,71,0.00,,FEW050,0.00,VWS V13.01,2013-10-15 02:07:00,
2013-10-14 22:12:00,78.6,68.4,29.95,ENE,67,1.0,3.0,71,0.00,,FEW050,0.00,VWS V13.01,2013-10-15 02:12:00,
2013-10-14 22:17:00,78.6,68.0,29.95,ENE,61,2.0,3.0,70,0.00,,FEW050,0.00,VWS V13.01,2013-10-15 02:17:00,
2013-10-14 22:22:00,78.5,68.3,29.95,ENE,65,1.0,3.0,71,0.00,,FEW050,0.00,VWS V13.01,2013-10-15 02:22:00,
2013-10-14 22:27:00,78.6,68.0,29.96,East,82,1.0,4.0,70,0.00,,FEW050,0.00,VWS V13.01,2013-10-15 02:27:00,
2013-10-14 22:32:00,78.6,68.0,29.95,East,101,0.0,2.0,70,0.00,,FEW050,0.00,VWS V13.01,2013-10-15 02:32:00,
2013-10-14 22:37:00,78.5,67.9,29.95,ESE,106,1.0,2.0,70,0.00,,FEW050,0.00,VWS V13.01,2013-10-15 02:37:00,
2013-10-14 22:42:00,78.5,67.9,29.95,East,101,2.0,4.0,70,0.00,,FEW050,0.00,VWS V13.01,2013-10-15 02:42:00,
2013-10-14 22:47:00,78.5,67.9,29.96,East,98,1.0,4.0,70,0.00,,FEW050,0.00,VWS V13.01,2013-10-15 02:47:00,
2013-10-14 22:52:00,78.4,67.8,29.95,East,92,2.0,4.0,70,0.00,,FEW050,0.00,VWS V13.01,2013-10-15 02:52:00,
2013-10-14 22:57:00,78.3,67.7,29.95,East,94,0.0,5.0,70,0.00,,FEW050,0.00,VWS V13.01,2013-10-15 02:57:00,
2013-10-14 23:02:00,78.4,68.2,29.95,ENE,75,1.0,2.0,71,0.00,,FEW030,0.00,VWS V13.01,2013-10-15 03:02:00,
2013-10-14 23:07:00,78.3,68.1,29.95,East,80,2.0,2.0,71,0.00,,FEW030,0.00,VWS V13.01,2013-10-15 03:07:00,
2013-10-14 23:12:00,78.2,68.0,29.95,ENE,74,3.0,6.0,71,0.00,,FEW030,0.00,VWS V13.01,2013-10-15 03:12:00,
2013-10-14 23:17:00,78.2,68.4,29.95,ENE,69,2.0,6.0,72,0.00,,FEW030,0.00,VWS V13.01,2013-10-15 03:17:00,
2013-10-14 23:22:00,78.0,68.2,29.95,ENE,69,1.0,6.0,72,0.00,,FEW030,0.00,VWS V13.01,2013-10-15 03:22:00,
2013-10-14 23:27:00,77.9,68.2,29.95,ENE,71,2.0,6.0,72,0.00,,FEW030,0.00,VWS V13.01,2013-10-15 03:27:00,
2013-10-14 23:32:00,77.9,68.6,29.95,ENE,71,0.0,1.0,73,0.00,,FEW030,0.00,VWS V13.01,2013-10-15 03:32:00,
2013-10-14 23:37:00,77.8,68.5,29.94,ENE,71,1.0,2.0,73,0.00,,FEW030,0.00,VWS V13.01,2013-10-15 03:37:00,
2013-10-14 23:42:00,77.6,68.3,29.94,ENE,71,2.0,2.0,73,0.00,,FEW030,0.00,VWS V13.01,2013-10-15 03:42:00,
2013-10-14 23:47:00,77.6,68.7,29.94,ENE,71,0.0,2.0,74,0.00,,FEW030,0.00,VWS V13.01,2013-10-15 03:47:00,
2013-10-14 23:52:00,77.5,68.6,29.94,ENE,71,1.0,2.0,74,0.00,,FEW030,0.00,VWS V13.01,2013-10-15 03:52:00,
2013-10-14 23:57:00,77.2,68.7,29.94,ENE,71,2.0,2.0,75,0.00,,FEW030,0.00,VWS V13.01,2013-10-15 03:57:00,